Location: Newark
(30.0333°N, 31.2167°E)
Time: 04:35:04
(UTC+00:00)

Tiros 1 despin weight - Pass Details

Date: 23 January 2020
Orbit: 594 x 642 km, 48.2° (Epoch: 16 February)

Event Time Altitude Azimuth Distance (km) Brightness Sun altitude
Rises 09:06:10 0° 234° (SW) 2,838 ? 38.3°
Reaches altitude 10° 09:08:27 10° 237° (WSW) 1,945 ? 38.5°
Maximum altitude 09:12:53 67° 320° (NW) 665 ? 38.8°
Drops below altitude 10° 09:17:25 10° 43° (NE) 1,982 ? 39.0°
Sets 09:19:46 0° 46° (NE) 2,899 ? 39.2°
